TITAN 3C TRANSTAGE R/B, 8516

Orbit data source: Space-Track

TITAN 3C TRANSTAGE R/B, 8516 is space debris in GEO originally from a launch on Sun, 14 Dec 1975 UTC launched from the Air Force Eastern Test Range (AFETR). Debris objects in space refer to the collection of defunct objects orbiting the Earth. Examples of debris include non-operational satellites, rocket bodies, and fragments generated from explosions, collisions, or faulty payload assembly.

Loading next visibility...
Identifier
8516, 1975-118C
Orbit
GEO
Country
Flag of USUS
Related business
Manufacturer
Martin Marietta
Mission
Spacecraft
Bus & Motor
TRANSTAGE, Unknown motor
Mass
~1,950 kg wet, ~1,950 kg dry
Launch date (UTC)
1975-12-14 (50 years ago)
Launch vehicle
Unknown
Launch site
Air Force Eastern Test Range (AFETR)
Object type
Payload
Rocket body
Debris
Shape & HBR
Unknown
Radar Cross Section
Large (>1 m²)

Expand to show TLE details & history
Last TLE update: 20 hours ago

TLE from 20 hours ago
0 TITAN 3C TRANSTAGE R/B
1 08516U 75118C   25314.75448570 -.00000287  00000-0  00000-0 0  9995
2 08516   2.8317 263.6748 0011503 214.3167 145.6904  1.00542223 23589
Epoch: 2025-11-10T18:06Z
TLE epoch observation values (Epoch: 2025-11-10T18:06:27.564Z)
Latitude
-0°
Longitude
-58.03626°
Altitude
35,750.386 km
Speed
3.075 km/s
True Right ascension
17h 34m 55s
True Declination
0° 00' 00"
Sunlit
Object was in daylight at epoch
Visualization orbit readout
Latitude
Unknown
Longitude
Unknown
Altitude
Unknown
Speed
Unknown
Apparent Right ascension
Unknown
Apparent Declination
Unknown
Sunlit
N/A
Visualization observer readout
Local Sidereal Time
10:31:17
Azimuth
Unknown
Elevation
Unknown
Doppler factor
Unknown
Orbital elements
Apogee altitude
35,760.436 km
Perigee altitude
35,663.603 km
Semi-major axis
42,090.157 km
Eccentricity
0.00115
Inclination
2.8317°
RAAN
263.6748°
Arg. of periapsis
214.3167°
True anomaly
145.76461°
Mean anomaly
145.6904°
Eccentric anomaly
145.72751°
Mean motion
0.25135 °/min
Orbital period
1,432.29 mins
BSTAR
0
Loading maneuver chart data...
Computing Atmospheric mass density...
Loading historical data...
Loading historical data...
Loading historical data...
Loading historical data...
Loading historical data...
Loading historical data...
Loading historical data...
Other satellites on launch #118 in the year 1975 (1975-12-14 UTC)

Documentation

Showing up to 5 results
|